Tracking 19846 objects as of 18-Sep-2019
HD Live streaming from Space Station
objects crossing your sky now

CSO-1

Track CSO-1 now!
10-day predictions


NORAD ID: 43866
Int'l Code: 2018-106A
Perigee: 809.1 km
Apogee: 810.5 km
Inclination: 98.6 °
Period: 100.9 minutes
Semi major axis: 7180 km
RCS: Unknown
Launch date: December 19, 2018
Source: France (FR)
Launch site: FRENCH GUIANA (FRGUI)
aabbcc
Your satellite tracking list
Your tracking list is empty




NASA's NSSDC Master Catalog

Two Line Element Set (TLE):
1 43866U 18106A   19252.06449876 0.00000000  00000-0  00000-0 0    09
2 43866  98.6300 190.3348 0001000 351.6024   8.3974 14.26736335    06
Source of the keplerian elements: McCants